SCP
1 1 1 1 1 1 1 1 1 1 1 1 1 1 1 1 1 1 1 1 1 1 1 1 1 1 1 0 0 0 0 0 0 0 0 0 0 0 0 1 1 1 0
1 1 1 1 1 1 1 1 1 1 1 1 1 1 1 1 1 1 1 1 1 1 1 1 1 1 1 0 0 0 0 0 0 0 0 0 0 0 0 1 1 1 1
1 1 1 1 1 1 1 1 1 1 1 1 1 1 1 1 1 0 1 1 1 1 0 1 1 1 0 0 0 0 0 0 0 0 0 0 0 0 0 1 1 1 1
1 1 1 1 1 1 1 1 1 1 1 1 1 1 1 1 1 0 0 0 0 0 1 1 1 1 1 0 0 0 0 0 0 0 0 1 1 1 1 1 1 1 1
1 1 1 1 1 1 1 1 1 1 1 1 1 1 1 1 1 0 0 0 0 1 1 1 1 1 1 0 0 0 0 0 0 0 1 1 1 1 1 1 1 1 1
1 1 1 1 1 1 1 1 1 1 1 1 1 0 0 1 1 0 0 0 0 1 1 1 1 1 1 0 0 0 0 0 0 0 1 2 2 2 2 2 2 1 1
1 1 1 1 1 1 1 1 1 1 1 1 1 1 0 1 0 0 0 0 1 1 1 1 1 1 0 0 0 0 0 0 0 1 1 2 2 2 2 2 2 2 2
1 1 1 1 1 1 1 1 1 1 1 1 1 1 0 0 0 0 0 1 1 1 1 1 1 1 0 0 0 0 0 0 0 1 1 2 2 2 1 1 1 1 1
1 1 1 1 0 0 0 1 1 1 1 1 1 0 0 0 0 0 1 1 1 1 1 1 0 0 0 0 0 0 0 0 0 0 1 1 1 1 1 1 1 1 1
1 1 1 1 1 0 0 1 1 1 1 1 1 0 0 0 0 0 1 1 1 1 1 0 0 0 0 0 0 0 0 0 0 0 0 1 1 1 1 0 0 0 1
2 2 2 1 1 1 1 1 1 1 1 0 0 0 0 0 0 0 1 1 1 1 1 0 0 0 0 0 0 0 0 0 0 0 1 1 1 1 1 1 1 0 0
2 2 2 1 1 1 1 1 0 0 0 0 1 1 0 1 1 1 1 1 1 1 0 0 0 0 0 0 0 0 0 0 0 1 1 2 2 2 1 1 1 1 1
2 2 1 2 1 1 1 1 1 1 1 1 1 1 1 1 1 1 1 1 1 1 0 0 0 0 0 0 0 0 0 0 0 1 1 2 2 2 2 2 2 2 2
2 1 2 2 2 2 1 1 1 1 1 1 1 1 1 1 1 1 1 1 1 1 1 1 0 0 0 1 0 0 0 0 0 0 1 2 2 2 2 2 2 2 3
2 2 2 3 3 2 2 2 1 2 2 1 1 1 1 1 1 1 1 1 1 1 1 1 1 1 1 1 1 1 1 1 1 1 1 2 2 2 2 2 3 3 3
3 3 3 3 3 3 2 2 2 2 2 2 2 2 1 1 2 2 2 2 1 1 1 1 1 1 1 1 1 1 1 1 1 1 1 2 2 2 2 3 3 4 4
5 4 4 4 3 3 2 2 2 2 3 3 3 3 2 2 2 2 2 2 2 2 2 2 2 2 2 2 2 2 2 2 2 2 2 2 2 2 3 3 3 3 4
7 6 4 4 3 3 3 3 4 4 4 4 4 4 3 2 2 2 2 2 2 2 2 3 2 2 2 2 2 2 2 2 2 2 2 2 2 2 3 3 3 3 3
9 7 5 5 5 5 5 5 6 6 6 5 5 4 3 2 2 2 3 3 3 3 3 3 2 2 2 2 1 1 1 1 1 1 2 2 2 2 2 2 3 3 2
11 9 7 8 9 8 8 8 7 7 7 6 5 4 3 2 2 2 3 3 3 3 2 2 2 1 1 1 0 0 0 1 1 1 1 1 1 1 1 1 2 2 1
12 10 10 11 12 12 10 9 9 8 7 6 4 4 3 2 2 2 2 2 2 2 1 1 1 1 1 0 0 0 0 0 0 0 0 0 1 1 1 1 1 1 1
12 11 12 13 13 13 12 11 10 9 7 5 4 3 2 2 1 1 2 1 1 1 0 0 0 0 0 0 0 0 0 0 0 0 0 0 0 0 0 0 0 0 0
11 11 12 13 13 13 12 11 10 8 6 5 3 3 2 1 1 1 1 0 0 0 0 0 0 0 0 0 0 0 0 0 0 0 0 0 0 0 0 0 0 0 0
11 11 11 12 12 12 12 11 9 8 6 5 3 2 1 1 0 0 0 0 0 0 0 0 0 0 0 0 0 0 0 0 0 0 0 0 0 0 0 0 0 0 0
11 11 11 11 11 11 11 11 10 9 7 5 3 2 1 0 0 0 0 0 0 0 0 0 0 0 0 0 0 0 0 0 0 0 0 0 0 0 0 0 0 0 0
12 12 11 10 10 10 11 11 11 10 8 5 3 1 1 0 0 0 0 0 0 0 0 0 0 0 0 0 0 0 0 0 0 0 0 0 0 0 0 0 0 0 0
Wind_Speed
17 16 17 15 13 13 12 12 13 12 12 12 12 11 10 10 10 10 10 10 11 11 12 12 11 11 11 11 11 10 8 6 4 3 3 4 5 6 6 6 5 7 10
20 17 16 15 14 13 13 13 13 13 12 12 12 11 11 10 10 10 10 9 9 10 10 10 10 10 10 9 8 7 5 4 3 3 1 3 5 5 5 5 6 6 9
19 16 15 14 13 13 13 13 13 13 13 13 12 12 11 10 9 9 8 8 7 8 8 8 8 9 8 8 6 5 2 3 5 5 6 5 6 6 6 6 7 7 7
18 15 15 15 13 13 13 13 13 13 13 13 12 12 11 10 9 8 8 7 6 6 6 7 8 8 7 6 5 2 2 5 7 9 5 4 6 8 7 7 6 7 7
16 16 16 15 13 12 12 13 13 13 13 13 12 11 10 9 8 7 7 7 7 7 7 7 7 7 6 5 4 1 4 8 10 10 2 7 6 8 8 7 6 6 7
17 17 16 15 13 12 11 12 12 13 13 12 11 10 9 8 7 6 6 6 7 7 6 6 6 7 6 4 2 1 5 9 10 7 4 7 7 8 7 6 5 5 7
16 17 16 15 13 12 11 11 11 11 11 10 9 8 7 6 5 5 6 7 7 7 7 7 7 6 5 3 0 3 7 11 8 5 5 9 9 9 8 7 6 5 5
16 17 15 15 14 12 11 10 10 9 9 8 8 7 6 5 4 4 5 6 7 8 8 7 6 5 3 1 2 5 8 11 9 2 9 9 9 10 8 6 6 5 5
17 17 14 13 12 12 11 11 10 10 8 7 6 6 6 6 5 5 6 6 7 7 7 6 5 4 3 3 4 6 9 11 8 4 8 8 10 9 7 6 5 4 4
15 16 14 14 12 11 11 12 11 9 8 8 8 8 8 8 7 7 7 7 8 7 7 6 5 5 5 6 7 9 10 10 8 3 7 8 12 10 7 5 4 4 4
14 14 14 14 13 12 12 12 12 11 10 10 9 10 8 6 7 6 7 9 9 8 7 7 7 8 8 8 10 10 8 6 7 4 7 12 12 10 7 4 2 2 2
14 14 14 14 14 13 11 11 9 10 10 9 8 9 6 4 4 7 9 10 10 10 9 10 10 9 9 6 8 9 5 7 6 3 8 14 12 10 7 4 3 3 3
14 12 14 13 11 10 8 9 7 6 7 8 7 6 5 5 5 6 5 6 7 9 7 8 9 7 5 2 1 4 3 2 2 4 8 12 11 10 9 6 4 4 4
14 12 13 12 9 10 8 7 7 6 5 5 5 4 4 3 3 4 5 6 6 5 5 5 4 4 1 0 3 4 4 2 2 4 5 10 10 9 9 7 6 5 5
13 8 11 9 7 5 4 3 5 5 6 7 5 3 3 2 2 1 2 2 2 2 1 2 3 4 4 4 4 5 6 6 5 3 5 8 9 9 9 9 8 7 6
11 7 8 9 7 6 3 0 3 5 4 6 5 5 2 3 4 4 3 4 4 4 4 3 5 4 3 3 4 5 5 5 5 4 2 5 8 9 10 10 10 9 8
12 9 7 8 9 7 6 4 3 4 4 5 5 5 4 5 4 3 2 4 4 3 4 4 5 4 4 5 5 5 4 4 5 5 4 2 4 9 10 9 9 9 9
13 11 8 9 11 8 6 5 3 5 6 6 6 6 6 6 5 3 5 5 4 4 5 4 5 5 5 5 5 5 4 4 5 5 5 4 3 2 7 10 10 10 10
13 11 9 7 12 10 7 6 7 7 7 6 6 6 6 6 6 5 6 4 4 5 5 6 6 5 5 5 5 5 4 4 4 7 6 6 4 3 2 7 12 13 14
11 10 9 8 11 10 8 6 6 7 7 7 6 6 6 6 7 5 6 5 5 4 4 4 3 3 3 4 6 6 4 5 5 5 7 6 3 3 3 4 3 6 12
10 9 8 8 9 8 7 8 7 7 7 7 7 8 8 7 7 5 5 3 2 3 2 2 3 4 4 4 4 5 5 5 6 5 4 3 3 4 4 4 3 3 3
10 8 7 8 10 9 7 6 6 7 7 7 7 6 7 6 4 5 4 3 4 2 1 2 3 2 4 4 4 5 4 4 4 6 5 4 5 4 5 7 6 5 5
11 9 8 8 9 9 10 8 8 7 7 7 7 5 5 5 6 5 4 4 4 3 4 3 3 4 3 5 4 2 3 3 5 5 7 5 5 4 4 5 7 6 7
11 8 7 9 8 9 9 10 11 9 8 8 6 5 5 4 5 4 4 4 3 3 4 4 6 3 3 4 4 3 3 3 3 4 5 5 5 5 5 6 6 6 6
11 8 8 9 9 8 7 8 7 7 7 5 6 6 5 5 4 3 4 3 1 2 4 3 3 2 3 4 4 5 5 4 4 5 6 5 5 4 4 4 4 5 5
11 9 9 9 8 7 8 7 7 8 7 7 5 5 3 5 5 4 5 2 0 3 3 1 1 2 1 1 2 4 4 4 5 5 7 7 6 5 6 6 7 6 6
Wind_Direction
110 114 113 107 102 96 100 115 119 120 119 117 116 113 108 100 93 89 86 84 87 92 94 95 93 91 87 80 73 68 60 51 40 39 73 104 109 104 90 73 59 97 102
111 114 113 110 109 105 104 108 113 116 116 116 115 113 110 105 100 96 92 89 89 91 95 97 98 96 93 87 78 67 50 19 338 328 290 183 145 126 103 77 59 106 119
108 117 118 112 113 111 111 110 110 111 111 111 111 111 111 109 106 102 98 94 92 95 101 106 107 105 101 96 88 75 39 320 308 312 283 228 157 140 116 93 90 119 127
118 129 124 119 117 116 115 115 113 112 111 110 110 112 112 111 108 105 103 100 98 100 105 109 111 112 110 107 104 94 320 303 309 309 288 131 133 136 123 111 113 129 139
119 119 124 128 124 123 121 120 120 119 118 118 118 117 115 112 109 108 108 107 106 106 109 116 123 124 123 123 125 112 311 309 312 296 285 112 119 131 121 121 132 145 149
121 122 131 132 131 130 129 129 130 130 129 128 126 125 123 121 118 115 113 114 114 115 118 122 126 126 127 125 117 341 313 307 310 288 126 120 112 111 106 108 118 142 156
126 124 134 138 139 140 140 139 138 138 137 135 133 131 130 129 125 119 116 117 120 120 118 116 116 116 114 110 58 310 304 303 292 288 99 94 99 102 97 92 92 105 142
123 122 133 140 147 150 150 149 146 147 146 142 141 140 139 138 135 127 121 121 121 119 116 114 114 117 121 144 280 290 291 291 301 344 104 102 108 106 105 101 92 89 102
123 126 141 144 153 157 155 156 156 152 150 151 155 154 158 158 155 145 135 128 126 124 125 128 136 149 175 216 247 263 271 279 286 256 117 109 113 110 111 117 118 113 110
129 133 141 151 152 157 159 160 158 153 156 164 170 172 174 172 169 163 160 140 142 144 147 154 169 189 207 225 241 251 265 285 270 262 110 120 119 118 117 120 123 125 123
130 134 141 149 156 161 158 157 159 159 164 166 174 181 182 186 173 175 162 153 163 166 171 184 199 211 218 227 241 252 267 263 266 121 123 134 133 130 129 132 136 136 136
140 147 154 157 165 165 157 156 165 170 170 185 174 177 194 180 174 168 154 173 178 182 189 208 217 226 226 222 230 246 252 254 276 127 128 138 136 136 141 155 188 223 235
150 164 158 162 159 149 155 169 170 170 167 183 160 170 173 168 170 166 169 178 188 193 202 216 221 229 219 168 204 236 260 336 343 76 129 136 137 143 149 157 177 208 228
156 168 155 151 150 160 170 168 157 152 159 137 145 177 169 192 189 180 189 182 191 196 202 204 222 203 122 305 284 290 314 318 3 96 139 144 144 150 157 164 177 197 212
149 156 139 140 133 125 114 148 149 133 139 133 155 186 172 187 193 127 78 67 360 83 123 341 9 38 17 338 333 354 1 354 355 37 130 152 155 162 173 183 192 205 217
134 136 125 130 130 123 124 246 108 126 125 146 151 146 130 63 59 51 44 41 16 30 44 358 5 8 353 2 348 351 353 349 356 11 114 167 184 187 192 198 204 212 222
140 136 132 148 143 151 165 183 155 131 134 116 105 98 75 68 67 53 60 57 22 9 28 22 7 358 3 357 354 2 355 352 339 332 316 250 202 206 206 212 219 225 231
146 142 161 178 152 163 178 177 138 111 100 90 88 80 70 66 57 43 62 54 8 17 31 25 23 10 9 358 351 342 332 318 306 293 282 276 272 238 204 216 224 229 236
143 148 176 182 151 163 156 121 97 91 91 91 90 88 75 67 63 65 70 46 15 39 37 22 31 9 349 341 316 293 295 304 301 292 288 280 274 276 252 223 222 229 239
140 154 177 167 148 150 135 118 111 106 101 97 95 94 90 77 64 67 85 57 35 50 48 35 6 343 314 290 293 304 304 289 282 276 276 274 268 295 309 313 278 251 256
148 161 170 162 144 141 137 137 133 127 118 109 102 94 85 81 74 61 78 80 63 69 54 14 22 337 324 322 318 311 303 298 291 289 309 316 8 7 351 339 333 335 310
161 167 170 158 147 144 137 133 129 123 115 105 96 93 95 93 86 84 59 42 45 11 33 47 40 350 332 347 332 313 306 301 338 355 345 357 10 1 345 331 342 329 317
169 174 173 157 152 142 135 125 117 109 114 118 121 115 114 110 90 71 64 49 26 3 63 36 35 24 351 327 308 321 322 325 342 318 344 347 349 346 333 330 312 300 298
159 163 163 151 147 135 135 139 144 149 150 142 138 130 125 96 89 83 70 64 36 11 54 35 59 4 338 316 333 347 326 315 296 307 311 309 320 318 300 288 286 289 289
141 141 137 136 132 137 138 141 146 129 121 124 120 132 133 116 109 103 95 70 32 68 78 49 48 2 332 2 355 338 328 321 288 281 301 314 308 291 298 309 310 305 304
116 113 116 118 113 106 98 93 93 102 113 122 129 140 165 146 136 126 115 94 351 73 77 75 89 289 19 360 324 312 312 316 324 321 310 306 305 318 331 326 310 293 285